FW4043 Weather Reports


Display with metric or nautical units.
time (UTC)temp
F
wind
direction
speed
MPH
gust
MPH
rain 1hr
in
rain 24hr
in
rain mn
in
humidity
%
barometer
mb
20260831010051 86 134 3.0 8.0 0.00 0.00 0.00 73 1015.3
20260831004555 88 145 7.0 11.0 0.00 0.00 0.00 72 1015.2
20260831003054 88 162 7.0 12.0 0.00 0.00 0.00 71 1015.2
20260831001507 89 158 7.0 11.0 0.00 0.00 0.00 69 1015.0
20260831000011 90 154 7.0 12.0 0.00 0.00 0.00 68 1015.1
20260830234537 91 181 8.0 13.0 0.00 0.00 0.00 67 1015.1
20260830233032 91 182 8.0 14.0 0.00 0.00 0.00 66 1015.0
20260830231535 92 159 9.0 12.0 0.00 0.00 0.00 65 1014.9
20260830230041 92 173 9.0 13.0 0.00 0.00 0.00 65 1014.9
20260830224551 93 148 9.0 13.0 0.00 0.00 0.00 64 1015.1
20260830223056 93 150 6.0 13.0 0.00 0.00 0.00 64 1014.9
20260830221505 94 144 9.0 15.0 0.00 0.00 0.00 63 1014.9
20260830220024 94 159 7.0 16.0 0.00 0.00 0.00 64 1014.8
20260830214517 94 176 5.0 9.0 0.00 0.00 0.00 64 1014.8
20260830213018 94 150 5.0 9.0 0.00 0.00 0.00 64 1015.0
20260830211525 94 107 8.0 12.0 0.00 0.00 0.00 65 1015.4
20260830210026 93 48 5.0 10.0 0.00 0.00 0.00 67 1015.5
20260830204515 93 181 4.0 8.0 0.00 0.00 0.00 65 1015.7
20260830203020 93 126 5.0 9.0 0.00 0.00 0.00 66 1015.9
20260830201559 92 142 3.0 7.0 0.00 0.00 0.00 68 1016.2
20260830200031 92 158 5.0 11.0 0.00 0.00 0.00 67 1016.2
20260830194533 91 86 2.0 10.0 0.00 0.00 0.00 72 1016.5
20260830193042 91 150 6.0 9.0 0.00 0.00 0.00 72 1016.7
20260830191548 91 156 8.0 12.0 0.00 0.00 0.00 73 1017.1
20260830190046 91 180 6.0 11.0 0.00 0.00 0.00 75 1017.2
20260830184558 90 161 6.0 9.0 0.00 0.00 0.00 76 1017.3
20260830183004 89 170 7.0 10.0 0.00 0.00 0.00 77 1017.6
20260830181511 88 298 2.0 6.0 0.00 0.00 0.00 80 1017.8
20260830180017 88 294 3.0 7.0 0.00 0.00 0.00 81 1018.0
20260830174527 87 302 3.0 6.0 0.00 0.00 0.00 82 1018.3
20260830173031 87 343 1.0 5.0 0.00 0.00 0.00 84 1018.5
20260830171530 86 348 2.0 6.0 0.00 0.00 0.00 84 1018.6
20260830170036 86 329 2.0 5.0 0.00 0.00 0.00 85 1018.7
20260830164542 85 333 0.0 4.0 0.00 0.00 0.00 87 1018.7
20260830163056 85 299 3.0 5.0 0.00 0.00 0.00 86 1018.8
20260830161552 85 321 2.0 6.0 0.00 0.00 0.00 88 1018.9
20260830160056 84 34 2.0 5.0 0.00 0.00 0.00 89 1018.9
20260830154601 84 13 1.0 4.0 0.00 0.00 0.00 89 1018.8
20260830154504 84 13 1.0 4.0 0.00 0.00 0.00 89 1018.9
20260830153018 84 137 0.0 8.0 0.00 0.00 0.00 89 1018.8
20260830151523 83 340 1.0 6.0 0.00 0.00 0.00 89 1018.8
20260830150020 83 55 3.0 6.0 0.00 0.00 0.00 89 1018.7
20260830144509 83 169 0.0 0.0 0.00 0.00 0.00 90 1018.9
20260830143014 83 167 0.0 4.0 0.00 0.00 0.00 90 1018.8
20260830141557 83 105 0.0 2.0 0.00 0.00 0.00 90 1018.7
20260830140100 82 105 0.0 0.0 0.00 0.00 0.00 91 1018.7
20260830140001 82 105 0.0 0.0 0.00 0.00 0.00 91 1018.7
20260830134512 81 105 0.0 2.0 0.00 0.00 0.00 91 1018.6
20260830133020 79 105 0.0 2.0 0.00 0.00 0.00 91 1018.3
20260830131601 78 105 0.0 0.0 0.00 0.00 0.00 91 1018.3
20260830130005 77 105 0.0 0.0 0.00 0.00 0.00 91 1018.2
20260830124514 77 105 0.0 0.0 0.00 0.00 0.00 90 1018.1
20260830123018 76 105 0.0 0.0 0.00 0.00 0.00 90 1018.0
20260830121525 76 105 0.0 4.0 0.00 0.00 0.00 91 1017.8
20260830120025 76 105 3.0 6.0 0.00 0.00 0.00 91 1017.7
20260830114543 76 108 0.0 4.0 0.00 0.00 0.00 90 1017.8
20260830113038 77 108 4.0 6.0 0.00 0.00 0.00 90 1017.5
20260830111545 77 112 4.0 6.0 0.00 0.00 0.00 90 1017.5
20260830110110 77 158 0.0 5.0 0.00 0.00 0.00 90 1017.4
20260830104505 77 150 0.0 2.0 0.00 0.00 0.00 90 1017.4
20260830103007 77 150 0.0 2.0 0.00 0.00 0.00 90 1017.5
20260830101513 77 152 2.0 5.0 0.00 0.00 0.00 90 1017.3
20260830100027 77 146 0.0 2.0 0.00 0.00 0.00 89 1017.2
20260830094558 77 146 1.0 6.0 0.00 0.00 0.00 90 1017.1
20260830093039 78 137 1.0 4.0 0.00 0.00 0.00 90 1017.1
20260830091545 78 124 2.0 5.0 0.00 0.00 0.00 90 1017.1
20260830090054 78 117 1.0 3.0 0.00 0.00 0.00 89 1017.1
20260830084505 79 117 0.0 5.0 0.00 0.00 0.00 89 1017.0
20260830083101 79 115 1.0 5.0 0.00 0.00 0.00 89 1017.2
20260830081506 78 202 0.0 4.0 0.00 0.00 0.00 89 1017.1
20260830080025 78 140 0.0 7.0 0.00 0.00 0.00 89 1017.4
20260830074514 79 136 1.0 4.0 0.00 0.00 0.00 89 1017.2
20260830073018 79 167 2.0 6.0 0.00 0.00 0.00 89 1017.3
20260830071525 79 162 2.0 7.0 0.00 0.00 0.00 89 1017.5
20260830070036 79 173 3.0 7.0 0.00 0.00 0.00 89 1017.4
20260830064544 80 171 0.0 4.0 0.00 0.00 0.00 89 1017.3
20260830063040 79 173 3.0 10.0 0.00 0.00 0.00 89 1017.3
20260830061530 79 144 4.0 11.0 0.00 0.00 0.00 89 1017.3
20260830060019 80 159 5.0 10.0 0.00 0.00 0.00 89 1017.4
20260830054519 80 148 2.0 12.0 0.00 0.00 0.00 88 1017.4
20260830053011 80 186 2.0 10.0 0.00 0.00 0.00 88 1017.4
20260830051504 80 174 4.0 10.0 0.00 0.00 0.00 89 1017.4
20260830050012 80 176 3.0 10.0 0.00 0.00 0.00 88 1017.5
20260830044510 79 163 4.0 10.0 0.00 0.00 0.00 88 1017.7
20260830043008 79 130 2.0 7.0 0.00 0.00 0.00 88 1017.8
20260830041524 79 128 6.0 10.0 0.00 0.00 0.00 88 1017.9
20260830040023 79 118 5.0 10.0 0.00 0.00 0.00 88 1017.7
20260830034532 80 121 8.0 10.0 0.00 0.00 0.00 88 1017.5
20260830033039 80 124 6.0 9.0 0.00 0.00 0.00 87 1017.5
20260830031548 80 125 7.0 9.0 0.00 0.00 0.00 87 1017.4
20260830030056 81 126 7.0 9.0 0.00 0.00 0.00 86 1017.3
20260830024555 81 132 6.0 8.0 0.00 0.00 0.00 85 1017.3
20260830023007 82 134 6.0 8.0 0.00 0.00 0.00 84 1017.1
20260830021522 82 131 6.0 10.0 0.00 0.00 0.00 83 1016.7
20260830020016 83 126 6.0 9.0 0.00 0.00 0.00 83 1016.6
20260830014517 83 123 7.0 10.0 0.00 0.00 0.00 82 1016.3
20260830013023 84 133 7.0 10.0 0.00 0.00 0.00 81 1016.2
20260830011529 85 126 7.0 11.0 0.00 0.00 0.00 80 1016.0